Regional Weather Roundup
Issued by NWS

Home | Current Version | Previous Version | Text Only | Print | Product List | Glossary Off
Versions: 1 2 3 4 5 6 7 8 9 10 11 12 13 14 15 16 17 18 19 20 21 22 23 24 25 26 27 28 29 30 31 32 33 34 35 36 37 38 39 40 41 42 43 44 45 46 47 48 49 50

000
ASUS45 KPSR 251700
RWRAZ

PRELIMINARY ARIZONA REGIONAL HOURLY WEATHER ROUNDUP
NATIONAL WEATHER SERVICE PHOENIX AZ
1000 AM MST SUN JAN 25 2015

NOTE: FAIR INDICATES FEW OR NO CLOUDS BELOW 12,000 FEET WITH NO
SIGNIFICANT WEATHER AND/OR OBSTRUCTIONS TO VISIBILITY.

AZZ001>003-036-251800-
NORTHWEST ARIZONA

CITY           SKY/WX    TMP DP  RH WIND       PRES   REMARKS
KINGMAN        SUNNY     54  23  30 N14       30.26S
$$

AZZ004>008-015-016-018-251800-
NORTH CENTRAL ARIZONA

CITY           SKY/WX    TMP DP  RH WIND       PRES   REMARKS
GRAND CANYON   SUNNY     48  22  35 NE18G24   30.36R
PRESCOTT       SUNNY     49  18  29 S3        30.28R
FLAGSTAFF      NOT AVBL
PAYSON         SUNNY     54  19  26 NE6       30.27S
$$

AZZ009>014-017-251800-
NORTHEAST ARIZONA

CITY           SKY/WX    TMP DP  RH WIND       PRES   REMARKS
WINSLOW        NOT AVBL
SAINT JOHNS    SUNNY     39  21  48 CALM      30.36R
WINDOW ROCK    SUNNY     40  20  44 N3        30.34R
$$

AZZ023-251800-
GREATER PHOENIX AREA

CITY           SKY/WX    TMP DP  RH WIND       PRES   REMARKS
PHOENIX        PTSUNNY   61  24  24 E6        30.11S
GLENDALE       MOSUNNY   55  28  35 CALM      30.14R
LUKE AFB       NOT AVBL
DEER VALLEY    SUNNY     62  20  19 NE3       30.11F
SCOTTSDALE     MOSUNNY   60  25  26 W3        30.13S
MESA-FALCON    MOSUNNY   57  19  23 N16       30.12S
CHANDLER       PTSUNNY   50  28  43 N6        30.13S
$$

AZZ027-028-251800-
SOUTHWEST MARICOPA COUNTY AND PINAL COUNTY

CITY           SKY/WX    TMP DP  RH WIND       PRES   REMARKS
CASA GRANDE    CLOUDY    59  19  21 E9        30.12S
GILA BEND      FAIR      54  21  27 NE7       30.10R
$$

AZZ503-504-507>509-251800-
SOUTHEAST ARIZONA

CITY           SKY/WX    TMP DP  RH WIND       PRES   REMARKS
TUCSON         CLOUDY    58  13  17 SE8       30.14R
DAVIS-MONTHAN  CLOUDY    56  13  18 SE8       30.12S
NOGALES        PTSUNNY   52  17  25 S6        30.15R
SIERRA VISTA   PTSUNNY   51  12  21 NE6       30.20R
SAFFORD        PTSUNNY   49  20  31 SE8       30.24S
$$

AZZ020-021-025-026-031-251800-
SOUTHWEST ARIZONA

CITY           SKY/WX    TMP DP  RH WIND       PRES   REMARKS
YUMA           PTSUNNY   63  27  25 NE16      30.07S
$$

CAZ031-033-041-043-047-048-061-251800-
SOUTHERN CALIFORNIA

CITY           SKY/WX    TMP DP  RH WIND       PRES   REMARKS
DOWNTOWN L.A.  SUNNY     62  36  37 CALM      30.03R
L.A. AIRPORT   MOSUNNY   63  36  36 CALM      30.04R
SAN DIEGO      PTSUNNY   63  36  36 CALM      30.04F
BURBANK        SUNNY     65  28  24 CALM      30.04R
ONTARIO        MOSUNNY   68  27  21 NW5       30.05R
RIVERSIDE      SUNNY     62  28  27 E6        30.07S
PALM SPRINGS   SUNNY     71  28  20 W5        30.14S
EL CENTRO NAS  SUNNY     60  23  24 W7        30.10S
IMPERIAL       SUNNY     59  30  33 W8        30.09S
BLYTHE         SUNNY     59  30  33 CALM      30.13R
$$

NVZ020-UTZ003-251800-
SOUTHERN NEVADA-UTAH

CITY           SKY/WX    TMP DP  RH WIND       PRES   REMARKS
LAS VEGAS      NOT AVBL
SALT LAKE CITY MOSUNNY   38  30  73 CALM      30.46F
$$

NMZ009-TXZ055-251800-
NEW MEXICO-WEST TEXAS

CITY           SKY/WX    TMP DP  RH WIND       PRES   REMARKS
ALBUQUERQUE    MOSUNNY   39  20  46 NW6       30.33R WCI  35
EL PASO        PTSUNNY   48  24  39 N10       30.27S
$$


........................KEY........................
SKY/WX - SKY CONDITION/WEATHER
TMP    - TEMPERATURE IN FAHRENHEIT
DP     - DEW POINT IN FAHRENHEIT
RH     - RELATIVE HUMIDITY IN PERCENT
WIND   - DIRECTION AND SPEED IN MILES PER HOUR (MPH)
VRB    - VARIABLE WIND DIRECTION
PRES   - MEAN SEA LEVEL PRESSURE IN INCHES OF MERCURY
         F - FALLING PRESSURE   R - RISING PRESSURE
         S - STEADY PRESSURE
VSB    - VISIBILITY IN MILES
HX     - HEAT INDEX IN FAHRENHEIT
WCI    - WIND CHILL INDEX IN FAHRENHEIT
TC     - TEMPERATURE IN CELSIUS WHICH IS ALSO KNOWN AS
         TEMPERATURE IN CENTIGRADE
AFB    - AIR FORCE BASE
         LUKE AFB IS LUKE AIR FORCE BASE
         DAVIS-MONTHAN IS DAVIS-MONTHAN AIR FORCE BASE
NAS    - NAVAL AIR STATION
         EL CENTRO NAS IS EL CENTRO NAVAL AIR STATION
N/A    - NOT AVAILABLE



USA.gov is the U.S. government's official web portal to all federal, state and local government web resources and services.